When you browse on this site, cookies collect data to enhance your experience and personalize the content and advertising you see.
Visit our Privacy Policy to learn more. By continuing to use the site, you agree to this use of cookies and data.
  • In Portugal
  • List of Countries
  • For 7 days
  • Water Temperature
  • Satellite Maps
  • Weather Map
  • Weather Widgets
  • user-avatar
    Login

    Hourly Weather Oran

    Today, 22 May, Wednesday

    Time Temperature Precipitation Wind Pressure Humidity
    00:00 +21°C° 0 mm 1 mps 752 mmHg 61%
    01:00 +20°C° 0 mm 1 mps 752 mmHg 64%
    02:00 +18°C° 0 mm 0 mps 752 mmHg 67%
    03:00 +17°C° 0 mm 0 mps 751 mmHg 70%
    04:00 +18°C° 0 mm 0 mps 752 mmHg 68%
    05:00 +18°C° 0 mm 0 mps 752 mmHg 66%
    06:00 +19°C° 0 mm 0 mps 752 mmHg 63%
    07:00 +20°C° 0 mm 0 mps 752 mmHg 57%
    08:00 +21°C° 0 mm 0 mps 753 mmHg 50%
    09:00 +22°C° 0 mm 0 mps 753 mmHg 43%
    10:00 +25°C° 0 mm 2 mps 753 mmHg 41%
    11:00 +27°C° 0 mm 3 mps 753 mmHg 38%
    12:00 +28°C° 0 mm 4 mps 753 mmHg 35%
    13:00 +28°C° 0 mm 5 mps 752 mmHg 35%
    14:00 +28°C° 0 mm 5 mps 752 mmHg 35%
    15:00 +28°C° 0 mm 6 mps 752 mmHg 35%
    16:00 +27°C° 0 mm 5 mps 752 mmHg 37%
    17:00 +26°C° 0 mm 5 mps 752 mmHg 39%
    18:00 +25°C° 0 mm 5 mps 752 mmHg 41%
    19:00 +25°C° 0 mm 4 mps 752 mmHg 45%
    20:00 +23°C° 0 mm 4 mps 752 mmHg 49%
    21:00 +22°C° 0 mm 3 mps 753 mmHg 53%
    22:00 +21°C° 0 mm 2 mps 753 mmHg 54%
    23:00 +21°C° 0 mm 2 mps 753 mmHg 55%

    Tomorrow, 23 May, Thursday

    Time Temperature Precipitation Wind Pressure Humidity
    00:00 +21°C° 0 mm 1 mps 753 mmHg 57%
    01:00 +21°C° 0 mm 1 mps 753 mmHg 57%
    02:00 +21°C° 0 mm 1 mps 752 mmHg 58%
    03:00 +20°C° 0 mm 1 mps 752 mmHg 58%
    04:00 +21°C° 0 mm 1 mps 752 mmHg 57%
    05:00 +21°C° 0 mm 1 mps 752 mmHg 56%
    06:00 +22°C° 0 mm 1 mps 752 mmHg 54%
    07:00 +24°C° 0 mm 2 mps 752 mmHg 48%
    08:00 +25°C° 0 mm 2 mps 752 mmHg 42%
    09:00 +27°C° 0 mm 3 mps 753 mmHg 36%
    10:00 +28°C° 0 mm 3 mps 752 mmHg 33%
    11:00 +29°C° 0 mm 4 mps 752 mmHg 30%
    12:00 +30°C° 0 mm 5 mps 752 mmHg 27%
    13:00 +30°C° 0 mm 5 mps 752 mmHg 27%
    14:00 +30°C° 0 mm 5 mps 751 mmHg 27%
    15:00 +30°C° 0 mm 6 mps 751 mmHg 27%
    16:00 +29°C° 0 mm 5 mps 751 mmHg 29%
    17:00 +28°C° 0 mm 5 mps 750 mmHg 31%
    18:00 +28°C° 0 mm 5 mps 750 mmHg 33%
    19:00 +26°C° 0 mm 4 mps 750 mmHg 36%
    20:00 +25°C° 0 mm 3 mps 751 mmHg 39%
    21:00 +24°C° 0 mm 2 mps 751 mmHg 42%
    22:00 +24°C° 0 mm 1 mps 751 mmHg 44%
    23:00 +23°C° 0 mm 1 mps 750 mmHg 45%

    Day after tomorrow, 24 May, Friday

    Time Temperature Precipitation Wind Pressure Humidity
    00:00 +21°C° 0 mm 0 mps 750 mmHg 46%
    01:00 +22°C° 0 mm 1 mps 750 mmHg 46%
    02:00 +22°C° 0 mm 1 mps 750 mmHg 45%
    03:00 +21°C° 0 mm 2 mps 750 mmHg 45%
    04:00 +21°C° 0 mm 2 mps 749 mmHg 46%
    05:00 +22°C° 0 mm 1 mps 749 mmHg 48%
    06:00 +22°C° 0 mm 1 mps 749 mmHg 49%
    07:00 +24°C° 0 mm 1 mps 749 mmHg 45%
    08:00 +25°C° 0 mm 1 mps 749 mmHg 41%
    09:00 +27°C° 0 mm 2 mps 749 mmHg 36%
    10:00 +28°C° 0 mm 2 mps 749 mmHg 34%
    11:00 +29°C° 0 mm 2 mps 749 mmHg 31%
    12:00 +30°C° 0 mm 3 mps 748 mmHg 29%
    13:00 +30°C° 0 mm 3 mps 748 mmHg 30%
    14:00 +29°C° 0 mm 4 mps 748 mmHg 31%
    15:00 +29°C° 0 mm 4 mps 747 mmHg 32%
    16:00 +28°C° 0 mm 4 mps 747 mmHg 36%
    17:00 +26°C° 0 mm 4 mps 747 mmHg 40%
    18:00 +25°C° 0 mm 4 mps 747 mmHg 44%
    19:00 +23°C° 0 mm 4 mps 748 mmHg 50%
    20:00 +22°C° 0 mm 4 mps 748 mmHg 56%
    21:00 +21°C° 0 mm 4 mps 748 mmHg 62%
    22:00 +21°C° 0 mm 4 mps 748 mmHg 67%
    23:00 +20°C° 0 mm 5 mps 748 mmHg 72%

    25 May, Saturday

    Time Temperature Precipitation Wind Pressure Humidity
    00:00 +20°C° 0 mm 6 mps 748 mmHg 76%
    01:00 +20°C° 0 mm 5 mps 748 mmHg 77%
    02:00 +20°C° 0 mm 5 mps 748 mmHg 77%
    03:00 +19°C° 0 mm 5 mps 748 mmHg 77%
    04:00 +19°C° 0 mm 5 mps 748 mmHg 77%
    05:00 +19°C° 0 mm 5 mps 748 mmHg 77%
    06:00 +19°C° 0 mm 5 mps 749 mmHg 77%
    07:00 +20°C° 0 mm 6 mps 749 mmHg 74%
    08:00 +20°C° 0 mm 6 mps 749 mmHg 71%
    09:00 +21°C° 0 mm 6 mps 750 mmHg 68%
    10:00 +21°C° 0 mm 7 mps 750 mmHg 64%
    11:00 +22°C° 0 mm 7 mps 750 mmHg 60%
    12:00 +23°C° 0 mm 7 mps 749 mmHg 56%
    13:00 +23°C° 0 mm 8 mps 749 mmHg 58%
    14:00 +22°C° 0 mm 8 mps 749 mmHg 59%
    15:00 +22°C° 0 mm 8 mps 749 mmHg 61%
    16:00 +22°C° 0 mm 8 mps 749 mmHg 64%
    17:00 +21°C° 0 mm 7 mps 750 mmHg 67%
    18:00 +20°C° 0 mm 7 mps 750 mmHg 70%
    19:00 +20°C° 0 mm 7 mps 750 mmHg 72%
    20:00 +19°C° 0 mm 6 mps 751 mmHg 74%
    21:00 +19°C° 0 mm 6 mps 752 mmHg 76%
    22:00 +19°C° 0 mm 5 mps 751 mmHg 77%
    23:00 +19°C° 0 mm 5 mps 751 mmHg 78%

    26 May, Sunday

    Time Temperature Precipitation Wind Pressure Humidity
    00:00 +17°C° 0 mm 5 mps 751 mmHg 79%
    01:00 +17°C° 0.3 mm 5 mps 751 mmHg 81%
    02:00 +17°C° 0.3 mm 5 mps 751 mmHg 82%
    03:00 +17°C° 0.3 mm 5 mps 751 mmHg 83%
    04:00 +17°C° 0.4 mm 5 mps 751 mmHg 82%
    05:00 +17°C° 0.4 mm 6 mps 751 mmHg 81%
    06:00 +17°C° 0.4 mm 6 mps 751 mmHg 80%
    07:00 +18°C° 0.6 mm 7 mps 751 mmHg 76%
    08:00 +20°C° 0.6 mm 7 mps 752 mmHg 73%
    09:00 +20°C° 0.6 mm 8 mps 752 mmHg 69%
    10:00 +21°C° 0.4 mm 8 mps 752 mmHg 68%
    11:00 +21°C° 0.4 mm 8 mps 752 mmHg 67%
    12:00 +21°C° 0.4 mm 8 mps 752 mmHg 65%
    13:00 +21°C° 0.1 mm 8 mps 752 mmHg 65%
    14:00 +22°C° 0.1 mm 8 mps 752 mmHg 64%
    15:00 +22°C° 0.1 mm 8 mps 752 mmHg 63%
    16:00 +21°C° 0 mm 7 mps 752 mmHg 65%
    17:00 +21°C° 0 mm 7 mps 752 mmHg 67%
    18:00 +20°C° 0 mm 6 mps 752 mmHg 70%
    19:00 +20°C° 0 mm 5 mps 752 mmHg 73%
    20:00 +19°C° 0 mm 4 mps 753 mmHg 76%
    21:00 +19°C° 0 mm 3 mps 753 mmHg 79%
    22:00 +19°C° 0 mm 2 mps 753 mmHg 81%
    23:00 +19°C° 0 mm 1 mps 753 mmHg 83%

    27 May, Monday

    Time Temperature Precipitation Wind Pressure Humidity
    00:00 +19°C° 0 mm 1 mps 752 mmHg 84%
    01:00 +19°C° 0 mm 1 mps 752 mmHg 86%
    02:00 +19°C° 0 mm 1 mps 752 mmHg 88%
    03:00 +17°C° 0 mm 2 mps 752 mmHg 89%
    04:00 +18°C° 0 mm 2 mps 752 mmHg 88%
    05:00 +18°C° 0 mm 2 mps 752 mmHg 87%
    06:00 +18°C° 0 mm 3 mps 752 mmHg 86%
    07:00 +19°C° 0 mm 3 mps 752 mmHg 78%
    08:00 +20°C° 0 mm 3 mps 752 mmHg 70%
    09:00 +21°C° 0 mm 3 mps 752 mmHg 62%
    10:00 +22°C° 0 mm 3 mps 752 mmHg 58%
    11:00 +24°C° 0 mm 3 mps 752 mmHg 54%
    12:00 +25°C° 0 mm 4 mps 752 mmHg 51%
    13:00 +25°C° 0 mm 4 mps 752 mmHg 49%
    14:00 +25°C° 0 mm 3 mps 752 mmHg 48%
    15:00 +26°C° 0 mm 3 mps 752 mmHg 47%
    16:00 +25°C° 0 mm 3 mps 752 mmHg 47%
    17:00 +25°C° 0 mm 3 mps 752 mmHg 48%
    18:00 +25°C° 0 mm 3 mps 752 mmHg 48%
    19:00 +24°C° 0 mm 3 mps 752 mmHg 51%
    20:00 +22°C° 0 mm 3 mps 752 mmHg 53%
    21:00 +23°C° 0 mm 2 mps 753 mmHg 56%
    22:00 +23°C° 0 mm 2 mps 753 mmHg 57%
    23:00 +21°C° 0 mm 2 mps 752 mmHg 58%
    Show more